Location: Ciserano
(45.5833°N, 9.6000°E)
Time: 16:12:50
(UTC+00:00)

NOSS 7 (H) - Visible Passes

Search period start: 12 April 2021 00:00
Search period end: 22 April 2021 00:00
Orbit: 368 x 1788 km, 63.3° (Epoch: 11 April)

Date Brightness Start Highest point End Pass type
(mag) Time Alt. Az. Time Alt. Az. Time Alt. Az.
12 Apr 5.7 04:11:16 10° NNW 04:14:53 60° NE 04:19:53 10° SE visible
13 Apr 7.0 03:18:51 10° NNW 03:22:02 29° NE 03:26:06 10° ESE visible
13 Apr 6.4 19:02:27 10° SSE 19:03:35 13° SE 19:03:35 13° SE visible
14 Apr 7.7 02:26:46 10° N 02:29:00 16° NE 02:31:35 10° ENE visible
14 Apr 4.1 19:57:52 10° SW 20:01:24 86° SE 20:03:20 20° NE visible
15 Apr 5.8 03:22:41 10° NNW 03:26:15 53° NE 03:31:09 10° SE visible
15 Apr 5.1 19:05:22 10° S 19:08:37 30° SE 19:11:21 10° ENE visible
15 Apr 7.1 20:56:16 10° W 20:58:31 18° NW 21:00:38 10° N visible
16 Apr 7.1 02:30:17 10° NNW 02:33:22 26° NE 02:37:15 10° ESE visible
16 Apr 5.6 20:02:22 10° WSW 20:05:34 39° NW 20:08:21 10° NNE visible
17 Apr 7.9 01:38:16 10° N 01:40:18 14° NE 01:42:36 10° ENE visible
17 Apr 4.9 03:26:42 10° NW 03:30:27 80° SW 03:35:43 10° SSE visible
17 Apr 4.1 19:09:11 10° SSW 19:12:44 74° SE 19:15:42 10° NE visible
18 Apr 5.9 02:34:04 10° NNW 02:37:35 48° NE 02:42:22 10° SE visible
18 Apr 7.1 20:07:23 10° W 20:09:49 19° NW 20:12:05 10° N visible
19 Apr 7.2 01:41:42 10° NNW 01:44:40 24° NE 01:48:22 10° E visible
19 Apr 5.5 03:30:56 10° NW 03:34:38 42° SW 03:39:43 10° SSE visible
19 Apr 5.4 19:13:34 10° SW 19:16:53 45° NW 19:19:44 10° NNE visible
20 Apr 7.9 00:49:47 10° N 00:51:34 13° NE 00:53:33 10° ENE visible
20 Apr 4.9 02:38:02 10° NW 02:41:45 89° WSW 02:46:59 10° SE visible
20 Apr 7.7 20:13:19 10° NW 20:14:13 11° NW 20:15:06 10° NNW visible
21 Apr 6.1 01:45:26 10° NNW 01:48:53 43° NE 01:53:32 10° ESE visible
21 Apr 6.3 03:35:30 10° WNW 03:38:50 23° WSW 03:43:04 10° S visible
21 Apr 7.0 19:18:29 10° W 19:21:05 22° NW 19:23:28 10° NNE visible
